Regional Weather Roundup
Issued by NWS

Home | Current Version | Previous Version | Graphics & Text | Print | Product List | Glossary On
Versions: 1 2 3 4 5 6 7 8 9 10 11 12 13 14 15 16 17 18 19 20 21 22 23 24 25 26 27 28 29 30 31 32 33 34 35 36 37 38 39 40 41 42 43 44 45 46 47 48 49 50
000
ASUS45 KCYS 141410
RWRWY

WYOMING REGIONAL WEATHER ROUNDUP
NATIONAL WEATHER SERVICE CHEYENNE WY
700 AM MST SUN FEB 14 2016

NOTE:  "FAIR" INDICATES FEW OR NO CLOUDS BELOW 12,000 FEET
WITH NO SIGNIFICANT WEATHER AND/OR OBSTRUCTIONS TO VISIBILITY.

WYZ001-141500-
YELLOWSTONE NATIONAL PARK

CITY           SKY/WX    TMP DP  RH WIND       PRES   REMARKS
LK YELLOWSTONE   N/A     23  19  85 VRB7      29.98S WCI  15
W YELLOWSTONE  NOT AVBL

$$
WYZ002>013-054>058-071-098>099-141500-
NORTHERN WYOMING

CITY           SKY/WX    TMP DP  RH WIND       PRES   REMARKS
JACKSON        FLURRIES  28  27  93 SW10      30.02S WCI  19
CODY           FAIR      39  19  45 W10G22    29.85S WCI  32
GREYBULL       CLOUDY    28  23  81 S3        29.86S
WORLAND        FAIR      24  21  88 S8        29.88F WCI  15
SHERIDAN       CLOUDY    32  19  59 CALM      29.83F
BUFFALO        CLOUDY    32  19  58 W8        29.82F WCI  25
GILLETTE       CLOUDY    28  22  78 NE6       29.83F WCI  22
HULETT         PTSUNNY   32  25  74 SW7       29.83S WCI  26
NEWCASTLE      FAIR      25  23  93 CALM      29.86S

$$
WYZ014>020-022>026-101>103-141500-
CENTRAL WYOMING

CITY           SKY/WX    TMP DP  RH WIND       PRES   REMARKS
BIG PINEY      CLOUDY    22  18  85 SW3       30.07F
PINEDALE       LGT SNOW  27  23  86 MISG      30.08F
DUBOIS         FLURRIES  27  23  86 N17G24    29.93F WCI  14
LANDER         FAIR      26  14  60 SE13      29.86F WCI  15
RIVERTON       FAIR      31  17  56 NW12      29.90S WCI  22
CASPER         CLOUDY    30  18  60 SW21      29.87F WCI  17
DOUGLAS        CLOUDY    25  21  85 CALM      29.86F

$$
WYZ021-027>030-104>119-141500-
SOUTHERN WYOMING

CITY           SKY/WX    TMP DP  RH WIND       PRES   REMARKS
EVANSTON       CLOUDY    29  21  72 SW16      30.17R WCI  17
FORT BRIDGER   CLOUDY    32  25  74 W25       30.17R WCI  19
ROCK SPRINGS   FAIR      31  21  66 W24G33    30.06R WCI  17
DIXON          CLOUDY    25  20  83 S3        30.08F
RAWLINS        FAIR      30  17  58 W32G41    29.94F WCI  14
SARATOGA       FAIR      32  19  59 W23G29    30.00F WCI  19
LARAMIE        CLOUDY    34  11  38 SW14      29.92F WCI  25
CHEYENNE       FAIR      38  12  34 VRB7      29.89F WCI  33
TORRINGTON     FAIR      34  20  56 NW9       29.86F WCI  27
PINE BLUFFS    FAIR      28  23  80 E3        29.90S

$$



USA.gov is the U.S. government's official web portal to all federal, state and local government web resources and services.